Year,Month,Day,Hour,Minute,Value (Times are PST for temperature in C)
2008,08,13,00,00,16.30
2008,08,13,00,01,16.30
2008,08,13,00,02,16.30
2008,08,13,00,03,16.30
2008,08,13,00,04,16.30
2008,08,13,00,05,16.30
2008,08,13,00,06,16.30
2008,08,13,00,07,16.30
2008,08,13,00,08,16.30
2008,08,13,00,09,16.30
2008,08,13,00,10,16.30
2008,08,13,00,11,16.30
2008,08,13,00,12,16.30
2008,08,13,00,13,16.30
2008,08,13,00,14,16.30
2008,08,13,00,15,16.30
2008,08,13,00,16,16.30
2008,08,13,00,17,16.30
2008,08,13,00,18,16.30
2008,08,13,00,19,16.20
2008,08,13,00,20,16.20
2008,08,13,00,21,16.20
2008,08,13,00,22,16.20
2008,08,13,00,23,16.20
2008,08,13,00,24,16.20
2008,08,13,00,25,16.20
2008,08,13,00,26,16.20
2008,08,13,00,27,16.20
2008,08,13,00,28,16.20
2008,08,13,00,29,16.10
2008,08,13,00,30,16.10
2008,08,13,00,31,16.10
2008,08,13,00,32,16.10
2008,08,13,00,33,16.10
2008,08,13,00,34,16.10
2008,08,13,00,35,16.10
2008,08,13,00,36,16.10
2008,08,13,00,37,16.10
2008,08,13,00,38,16.10
2008,08,13,00,39,16.10
2008,08,13,00,40,16.10
2008,08,13,00,41,16.10
2008,08,13,00,42,16.00
2008,08,13,00,43,16.10
2008,08,13,00,44,16.00
2008,08,13,00,45,16.10
2008,08,13,00,46,16.10
2008,08,13,00,47,16.10
2008,08,13,00,48,16.10
2008,08,13,00,49,16.10
2008,08,13,00,50,16.10
2008,08,13,00,51,16.10
2008,08,13,00,52,16.10
2008,08,13,00,53,16.10
2008,08,13,00,54,16.10
2008,08,13,00,55,16.10
2008,08,13,00,56,16.10
2008,08,13,00,57,16.10
2008,08,13,00,58,16.10
2008,08,13,00,59,16.00
2008,08,13,01,00,16.00
2008,08,13,01,01,16.00
2008,08,13,01,02,16.00
2008,08,13,01,03,16.00
2008,08,13,01,04,16.00
2008,08,13,01,05,16.00
2008,08,13,01,06,16.00
2008,08,13,01,07,16.00
2008,08,13,01,08,16.00
2008,08,13,01,09,16.10
2008,08,13,01,10,16.00
2008,08,13,01,11,16.00
2008,08,13,01,12,16.00
2008,08,13,01,13,16.00
2008,08,13,01,14,16.00
2008,08,13,01,15,16.00
2008,08,13,01,16,16.00
2008,08,13,01,17,16.00
2008,08,13,01,18,16.00
2008,08,13,01,19,16.00
2008,08,13,01,20,16.00
2008,08,13,01,21,16.00
2008,08,13,01,22,16.00
2008,08,13,01,23,16.00
2008,08,13,01,24,16.00
2008,08,13,01,25,16.00
2008,08,13,01,26,16.00
2008,08,13,01,27,16.00
2008,08,13,01,28,16.10
2008,08,13,01,29,16.10
2008,08,13,01,30,16.10
2008,08,13,01,31,16.10
2008,08,13,01,32,16.10
2008,08,13,01,33,16.10
2008,08,13,01,34,16.10
2008,08,13,01,35,16.10
2008,08,13,01,36,16.10
2008,08,13,01,37,16.10
2008,08,13,01,38,16.10
2008,08,13,01,39,16.10
2008,08,13,01,40,16.10
2008,08,13,01,41,16.10
2008,08,13,01,42,16.20
2008,08,13,01,43,16.20
2008,08,13,01,44,16.20
2008,08,13,01,45,16.20
2008,08,13,01,46,16.20
2008,08,13,01,47,16.20
2008,08,13,01,48,16.20
2008,08,13,01,49,16.20
2008,08,13,01,50,16.20
2008,08,13,01,51,16.20
2008,08,13,01,52,16.20
2008,08,13,01,53,16.20
2008,08,13,01,54,16.20
2008,08,13,01,55,16.20
2008,08,13,01,56,16.20
2008,08,13,01,57,16.20
2008,08,13,01,58,16.10
2008,08,13,01,59,16.10
2008,08,13,02,00,16.10
2008,08,13,02,01,16.10
2008,08,13,02,02,16.10
2008,08,13,02,03,16.10
2008,08,13,02,04,16.10
2008,08,13,02,05,16.10
2008,08,13,02,06,16.10
2008,08,13,02,07,16.10
2008,08,13,02,08,16.10
2008,08,13,02,09,16.10
2008,08,13,02,10,16.10
2008,08,13,02,11,16.10
2008,08,13,02,12,16.00
2008,08,13,02,13,16.00
2008,08,13,02,14,16.00
2008,08,13,02,15,16.00
2008,08,13,02,16,16.00
2008,08,13,02,17,16.00
2008,08,13,02,18,15.90
2008,08,13,02,19,15.90
2008,08,13,02,20,15.90
2008,08,13,02,21,15.90
2008,08,13,02,22,15.90
2008,08,13,02,23,15.90
2008,08,13,02,24,15.80
2008,08,13,02,25,15.80
2008,08,13,02,26,15.80
2008,08,13,02,27,15.80
2008,08,13,02,28,15.80
2008,08,13,02,29,15.80
2008,08,13,02,30,15.80
2008,08,13,02,31,15.80
2008,08,13,02,32,15.80
2008,08,13,02,33,15.70
2008,08,13,02,34,15.70
2008,08,13,02,35,15.70
2008,08,13,02,36,15.70
2008,08,13,02,37,15.70
2008,08,13,02,38,15.70
2008,08,13,02,39,15.70
2008,08,13,02,40,15.70
2008,08,13,02,41,15.60
2008,08,13,02,42,15.60
2008,08,13,02,43,15.60
2008,08,13,02,44,15.60
2008,08,13,02,45,15.60
2008,08,13,02,46,15.60
2008,08,13,02,47,15.60
2008,08,13,02,48,15.60
2008,08,13,02,49,15.50
2008,08,13,02,50,15.50
2008,08,13,02,51,15.50
2008,08,13,02,52,15.50
2008,08,13,02,53,15.50
2008,08,13,02,54,15.40
2008,08,13,02,55,15.40
2008,08,13,02,56,15.40
2008,08,13,02,57,15.40
2008,08,13,02,58,15.40
2008,08,13,02,59,15.40
2008,08,13,03,00,15.40
2008,08,13,03,01,15.40
2008,08,13,03,02,15.40
2008,08,13,03,03,15.30
2008,08,13,03,04,15.30
2008,08,13,03,05,15.30
2008,08,13,03,06,15.30
2008,08,13,03,07,15.30
2008,08,13,03,08,15.30
2008,08,13,03,09,15.30
2008,08,13,03,10,15.20
2008,08,13,03,11,15.20
2008,08,13,03,12,15.20
2008,08,13,03,13,15.20
2008,08,13,03,14,15.20
2008,08,13,03,15,15.20
2008,08,13,03,16,15.10
2008,08,13,03,17,15.10
2008,08,13,03,18,15.10
2008,08,13,03,19,15.10
2008,08,13,03,20,15.10
2008,08,13,03,21,15.10
2008,08,13,03,22,15.00
2008,08,13,03,23,15.00
2008,08,13,03,24,15.00
2008,08,13,03,25,15.00
2008,08,13,03,26,15.00
2008,08,13,03,27,15.00
2008,08,13,03,28,15.00
2008,08,13,03,29,15.00
2008,08,13,03,30,15.00
2008,08,13,03,31,15.00
2008,08,13,03,32,15.00
2008,08,13,03,33,15.00
2008,08,13,03,34,15.00
2008,08,13,03,35,15.00
2008,08,13,03,36,15.00
2008,08,13,03,37,15.00
2008,08,13,03,38,15.00
2008,08,13,03,39,14.90
2008,08,13,03,40,14.90
2008,08,13,03,41,14.90
2008,08,13,03,42,14.80
2008,08,13,03,43,14.80
2008,08,13,03,44,14.80
2008,08,13,03,45,14.80
2008,08,13,03,46,14.80
2008,08,13,03,47,14.80
2008,08,13,03,48,14.70
2008,08,13,03,49,14.70
2008,08,13,03,50,14.70
2008,08,13,03,51,14.70
2008,08,13,03,52,14.70
2008,08,13,03,53,14.70
2008,08,13,03,54,14.70
2008,08,13,03,55,14.70
2008,08,13,03,56,14.70
2008,08,13,03,57,14.70
2008,08,13,03,58,14.70
2008,08,13,03,59,14.70
2008,08,13,04,00,14.70
2008,08,13,04,01,14.70
2008,08,13,04,02,14.70
2008,08,13,04,03,14.70
2008,08,13,04,04,14.70
2008,08,13,04,05,14.70
2008,08,13,04,06,14.70
2008,08,13,04,07,14.70
2008,08,13,04,08,14.70
2008,08,13,04,09,14.70
2008,08,13,04,10,14.70
2008,08,13,04,11,14.60
2008,08,13,04,12,14.60
2008,08,13,04,13,14.60
2008,08,13,04,14,14.60
2008,08,13,04,15,14.50
2008,08,13,04,16,14.50
2008,08,13,04,17,14.50
2008,08,13,04,18,14.50
2008,08,13,04,19,14.40
2008,08,13,04,20,14.40
2008,08,13,04,21,14.40
2008,08,13,04,22,14.40
2008,08,13,04,23,14.40
2008,08,13,04,24,14.40
2008,08,13,04,25,14.30
2008,08,13,04,26,14.30
2008,08,13,04,27,14.30
2008,08,13,04,28,14.30
2008,08,13,04,29,14.30
2008,08,13,04,30,14.30
2008,08,13,04,31,14.20
2008,08,13,04,32,14.20
2008,08,13,04,33,14.20
2008,08,13,04,34,14.20
2008,08,13,04,35,14.20
2008,08,13,04,36,14.20
2008,08,13,04,37,14.20
2008,08,13,04,38,14.10
2008,08,13,04,39,14.10
2008,08,13,04,40,14.10
2008,08,13,04,41,14.10
2008,08,13,04,42,14.10
2008,08,13,04,43,14.10
2008,08,13,04,44,14.10
2008,08,13,04,45,14.10
2008,08,13,04,46,14.00
2008,08,13,04,47,14.00
2008,08,13,04,48,14.00
2008,08,13,04,49,14.00
2008,08,13,04,50,13.90
2008,08,13,04,51,13.90
2008,08,13,04,52,13.90
2008,08,13,04,53,13.90
2008,08,13,04,54,13.90
2008,08,13,04,55,13.90
2008,08,13,04,56,13.80
2008,08,13,04,57,13.80
2008,08,13,04,58,13.80
2008,08,13,04,59,13.80
2008,08,13,05,00,13.80
2008,08,13,05,01,13.70
2008,08,13,05,02,13.70
2008,08,13,05,03,13.70
2008,08,13,05,04,13.70
2008,08,13,05,05,13.70
2008,08,13,05,06,13.70
2008,08,13,05,07,13.60
2008,08,13,05,08,13.60
2008,08,13,05,09,13.60
2008,08,13,05,10,13.60
2008,08,13,05,11,13.60
2008,08,13,05,12,13.60
2008,08,13,05,13,13.60
2008,08,13,05,14,13.50
2008,08,13,05,15,13.50
2008,08,13,05,16,13.50
2008,08,13,05,17,13.40
2008,08,13,05,18,13.40
2008,08,13,05,19,13.40
2008,08,13,05,20,13.40
2008,08,13,05,21,13.40
2008,08,13,05,22,13.40
2008,08,13,05,23,13.30
2008,08,13,05,24,13.30
2008,08,13,05,25,13.30
2008,08,13,05,26,13.30
2008,08,13,05,27,13.30
2008,08,13,05,28,13.30
2008,08,13,05,29,13.30
2008,08,13,05,30,13.20
2008,08,13,05,31,13.20
2008,08,13,05,32,13.20
2008,08,13,05,33,13.20
2008,08,13,05,34,13.20
2008,08,13,05,35,13.20
2008,08,13,05,36,13.10
2008,08,13,05,37,13.10
2008,08,13,05,38,13.10
2008,08,13,05,39,13.10
2008,08,13,05,40,13.10
2008,08,13,05,41,13.10
2008,08,13,05,42,13.00
2008,08,13,05,43,13.00
2008,08,13,05,44,13.00
2008,08,13,05,45,12.90
2008,08,13,05,46,12.90
2008,08,13,05,47,12.90
2008,08,13,05,48,12.90
2008,08,13,05,49,12.90
2008,08,13,05,50,12.90
2008,08,13,05,51,12.80
2008,08,13,05,52,12.80
2008,08,13,05,53,12.80
2008,08,13,05,54,12.80
2008,08,13,05,55,12.80
2008,08,13,05,56,12.80
2008,08,13,05,57,12.80
2008,08,13,05,58,12.80
2008,08,13,05,59,12.80
2008,08,13,06,00,12.80
2008,08,13,06,01,12.80
2008,08,13,06,02,12.80
2008,08,13,06,03,12.70
2008,08,13,06,04,12.70
2008,08,13,06,05,12.70
2008,08,13,06,06,12.70
2008,08,13,06,07,12.70
2008,08,13,06,08,12.70
2008,08,13,06,09,12.70
2008,08,13,06,10,12.70
2008,08,13,06,11,12.70
2008,08,13,06,12,12.70
2008,08,13,06,13,12.70
2008,08,13,06,14,12.70
2008,08,13,06,15,12.70
2008,08,13,06,16,12.60
2008,08,13,06,17,12.60
2008,08,13,06,18,12.60
2008,08,13,06,19,12.60
2008,08,13,06,20,12.60
2008,08,13,06,21,12.60
2008,08,13,06,22,12.60
2008,08,13,06,23,12.60
2008,08,13,06,24,12.60
2008,08,13,06,25,12.60
2008,08,13,06,26,12.60
2008,08,13,06,27,12.60
2008,08,13,06,28,12.60
2008,08,13,06,29,12.50
2008,08,13,06,30,12.50
2008,08,13,06,31,12.50
2008,08,13,06,32,12.50
2008,08,13,06,33,12.50
2008,08,13,06,34,12.50
2008,08,13,06,35,12.50
2008,08,13,06,36,12.50
2008,08,13,06,37,12.50
2008,08,13,06,38,12.50
2008,08,13,06,39,12.50
2008,08,13,06,40,12.50
2008,08,13,06,41,12.50
2008,08,13,06,42,12.50
2008,08,13,06,43,12.50
2008,08,13,06,44,12.50
2008,08,13,06,45,12.50
2008,08,13,06,46,12.50
2008,08,13,06,47,12.50
2008,08,13,06,48,12.50
2008,08,13,06,49,12.50
2008,08,13,06,50,12.50
2008,08,13,06,51,12.50
2008,08,13,06,52,12.50
2008,08,13,06,53,12.50
2008,08,13,06,54,12.50
2008,08,13,06,55,12.50
2008,08,13,06,56,12.50
2008,08,13,06,57,12.50
2008,08,13,06,58,12.50
2008,08,13,06,59,12.50
2008,08,13,07,00,12.50
2008,08,13,07,01,12.60
2008,08,13,07,02,12.60
2008,08,13,07,03,12.60
2008,08,13,07,04,12.60
2008,08,13,07,05,12.60
2008,08,13,07,06,12.60
2008,08,13,07,07,12.60
2008,08,13,07,08,12.60
2008,08,13,07,09,12.60
2008,08,13,07,10,12.70
2008,08,13,07,11,12.70
2008,08,13,07,12,12.70
2008,08,13,07,13,12.70
2008,08,13,07,14,12.70
2008,08,13,07,15,12.70
2008,08,13,07,16,12.70
2008,08,13,07,17,12.70
2008,08,13,07,18,12.80
2008,08,13,07,19,12.80
2008,08,13,07,20,12.80
2008,08,13,07,21,12.80
2008,08,13,07,22,12.80
2008,08,13,07,23,12.80
2008,08,13,07,24,12.80
2008,08,13,07,25,12.80
2008,08,13,07,26,12.80
2008,08,13,07,27,12.80
2008,08,13,07,28,12.80
2008,08,13,07,29,12.80
2008,08,13,07,30,12.80
2008,08,13,07,31,12.90
2008,08,13,07,32,12.90
2008,08,13,07,33,12.90
2008,08,13,07,34,12.90
2008,08,13,07,35,12.90
2008,08,13,07,36,13.00
2008,08,13,07,37,13.00
2008,08,13,07,38,13.00
2008,08,13,07,39,13.10
2008,08,13,07,40,13.10
2008,08,13,07,41,13.10
2008,08,13,07,42,13.10
2008,08,13,07,43,13.10
2008,08,13,07,44,13.20
2008,08,13,07,45,13.20
2008,08,13,07,46,13.20
2008,08,13,07,47,13.20
2008,08,13,07,48,13.30
2008,08,13,07,49,13.30
2008,08,13,07,50,13.30
2008,08,13,07,51,13.40
2008,08,13,07,52,13.40
2008,08,13,07,53,13.50
2008,08,13,07,54,13.50
2008,08,13,07,55,13.60
2008,08,13,07,56,13.60
2008,08,13,07,57,13.70
2008,08,13,07,58,13.80
2008,08,13,07,59,13.90
2008,08,13,08,00,13.90
2008,08,13,08,01,14.00
2008,08,13,08,02,14.10
2008,08,13,08,03,14.20
2008,08,13,08,04,14.20
2008,08,13,08,05,14.30
2008,08,13,08,06,14.40
2008,08,13,08,07,14.50
2008,08,13,08,08,14.60
2008,08,13,08,09,14.70
2008,08,13,08,10,14.80
2008,08,13,08,11,15.00
2008,08,13,08,12,15.00
2008,08,13,08,13,15.00
2008,08,13,08,14,15.10
2008,08,13,08,15,15.20
2008,08,13,08,16,15.30
2008,08,13,08,17,15.40
2008,08,13,08,18,15.40
2008,08,13,08,19,15.50
2008,08,13,08,20,15.60
2008,08,13,08,21,15.70
2008,08,13,08,22,15.80
2008,08,13,08,23,15.80
2008,08,13,08,24,15.90
2008,08,13,08,25,16.00
2008,08,13,08,26,16.00
2008,08,13,08,27,16.10
2008,08,13,08,28,16.20
2008,08,13,08,29,16.20
2008,08,13,08,30,16.30
2008,08,13,08,31,16.30
2008,08,13,08,32,16.40
2008,08,13,08,33,16.40
2008,08,13,08,34,16.50
2008,08,13,08,35,16.60
2008,08,13,08,36,16.70
2008,08,13,08,37,16.80
2008,08,13,08,38,16.90
2008,08,13,08,39,17.00
2008,08,13,08,40,17.00
2008,08,13,08,41,17.10
2008,08,13,08,42,17.20
2008,08,13,08,43,17.30
2008,08,13,08,44,17.40
2008,08,13,08,45,17.50
2008,08,13,08,46,17.50
2008,08,13,08,47,17.60
2008,08,13,08,48,17.60
2008,08,13,08,49,17.70
2008,08,13,08,50,17.70
2008,08,13,08,51,17.70
2008,08,13,08,52,17.70
2008,08,13,08,53,17.80
2008,08,13,08,54,17.80
2008,08,13,08,55,17.80
2008,08,13,08,56,17.80
2008,08,13,08,57,17.80
2008,08,13,08,58,17.80
2008,08,13,08,59,17.80
2008,08,13,09,00,17.80
2008,08,13,09,01,17.80
2008,08,13,09,02,17.90
2008,08,13,09,03,17.90
2008,08,13,09,04,17.90
2008,08,13,09,05,18.00
2008,08,13,09,06,18.10
2008,08,13,09,07,18.10
2008,08,13,09,08,18.10
2008,08,13,09,09,18.20
2008,08,13,09,10,18.20
2008,08,13,09,11,18.30
2008,08,13,09,12,18.40
2008,08,13,09,13,18.40
2008,08,13,09,14,18.50
2008,08,13,09,15,18.60
2008,08,13,09,16,18.70
2008,08,13,09,17,18.80
2008,08,13,09,18,18.80
2008,08,13,09,19,18.90
2008,08,13,09,20,19.00
2008,08,13,09,21,19.10
2008,08,13,09,22,19.20
2008,08,13,09,23,19.30
2008,08,13,09,24,19.30
2008,08,13,09,25,19.40
2008,08,13,09,26,19.40
2008,08,13,09,27,19.40
2008,08,13,09,28,19.40
2008,08,13,09,29,19.40
2008,08,13,09,30,19.40
2008,08,13,09,31,19.40
2008,08,13,09,32,19.40
2008,08,13,09,33,19.40
2008,08,13,09,34,19.40
2008,08,13,09,35,19.30
2008,08,13,09,36,19.30
2008,08,13,09,37,19.30
2008,08,13,09,38,19.30
2008,08,13,09,39,19.30
2008,08,13,09,40,19.40
2008,08,13,09,41,19.50
2008,08,13,09,42,19.50
2008,08,13,09,43,19.60
2008,08,13,09,44,19.60
2008,08,13,09,45,19.70
2008,08,13,09,46,19.80
2008,08,13,09,47,19.80
2008,08,13,09,48,19.90
2008,08,13,09,49,19.90
2008,08,13,09,50,20.00
2008,08,13,09,51,20.00
2008,08,13,09,52,20.00
2008,08,13,09,53,20.00
2008,08,13,09,54,20.00
2008,08,13,09,55,20.00
2008,08,13,09,56,19.90
2008,08,13,09,57,19.90
2008,08,13,09,58,19.90
2008,08,13,09,59,19.90
2008,08,13,10,00,19.90
2008,08,13,10,01,20.00
2008,08,13,10,02,20.00
2008,08,13,10,03,20.00
2008,08,13,10,04,20.00
2008,08,13,10,05,20.10
2008,08,13,10,06,20.10
2008,08,13,10,07,20.10
2008,08,13,10,08,20.20
2008,08,13,10,09,20.30
2008,08,13,10,10,20.30
2008,08,13,10,11,20.40
2008,08,13,10,12,20.40
2008,08,13,10,13,20.50
2008,08,13,10,14,20.50
2008,08,13,10,15,20.60
2008,08,13,10,16,20.70
2008,08,13,10,17,20.60
2008,08,13,10,18,20.50
2008,08,13,10,19,20.50
2008,08,13,10,20,20.50
2008,08,13,10,21,20.50
2008,08,13,10,22,20.50
2008,08,13,10,23,20.60
2008,08,13,10,24,20.60
2008,08,13,10,25,20.60
2008,08,13,10,26,20.60
2008,08,13,10,27,20.60
2008,08,13,10,28,20.60
2008,08,13,10,29,20.50
2008,08,13,10,30,20.50
2008,08,13,10,31,20.60
2008,08,13,10,32,20.60
2008,08,13,10,33,20.70
2008,08,13,10,34,20.80
2008,08,13,10,35,20.90
2008,08,13,10,36,20.90
2008,08,13,10,37,21.00
2008,08,13,10,38,21.00
2008,08,13,10,39,21.00
2008,08,13,10,40,21.00
2008,08,13,10,41,20.90
2008,08,13,10,42,20.90
2008,08,13,10,43,20.90
2008,08,13,10,44,20.90
2008,08,13,10,45,20.80
2008,08,13,10,46,20.80
2008,08,13,10,47,20.80
2008,08,13,10,48,20.80
2008,08,13,10,49,20.80
2008,08,13,10,50,20.80
2008,08,13,10,51,20.80
2008,08,13,10,52,20.80
2008,08,13,10,53,20.80
2008,08,13,10,54,20.90
2008,08,13,10,55,20.90
2008,08,13,10,56,20.80
2008,08,13,10,57,20.80
2008,08,13,10,58,20.80
2008,08,13,10,59,20.80
2008,08,13,11,00,20.80
2008,08,13,11,01,20.80
2008,08,13,11,02,20.80
2008,08,13,11,03,20.80
2008,08,13,11,04,20.80
2008,08,13,11,05,20.80
2008,08,13,11,06,20.80
2008,08,13,11,07,20.80
2008,08,13,11,08,20.80
2008,08,13,11,09,20.90
2008,08,13,11,10,21.00
2008,08,13,11,11,21.10
2008,08,13,11,12,21.10
2008,08,13,11,13,21.20
2008,08,13,11,14,21.20
2008,08,13,11,15,21.20
2008,08,13,11,16,21.20
2008,08,13,11,17,21.30
2008,08,13,11,18,21.30
2008,08,13,11,19,21.40
2008,08,13,11,20,21.40
2008,08,13,11,21,21.50
2008,08,13,11,22,21.60
2008,08,13,11,23,21.70
2008,08,13,11,24,21.80
2008,08,13,11,25,21.80
2008,08,13,11,26,21.80
2008,08,13,11,27,21.90
2008,08,13,11,28,21.90
2008,08,13,11,29,21.90
2008,08,13,11,30,21.90
2008,08,13,11,31,21.80
2008,08,13,11,32,21.80
2008,08,13,11,33,21.70
2008,08,13,11,34,21.70
2008,08,13,11,35,21.70
2008,08,13,11,36,21.70
2008,08,13,11,37,21.70
2008,08,13,11,38,21.70
2008,08,13,11,39,21.70
2008,08,13,11,40,21.70
2008,08,13,11,41,21.70
2008,08,13,11,42,21.60
2008,08,13,11,43,21.60
2008,08,13,11,44,21.60
2008,08,13,11,45,21.60
2008,08,13,11,46,21.60
2008,08,13,11,47,21.60
2008,08,13,11,48,21.60
2008,08,13,11,49,21.70
2008,08,13,11,50,21.70
2008,08,13,11,51,21.70
2008,08,13,11,52,21.70
2008,08,13,11,53,21.80
2008,08,13,11,54,21.90
2008,08,13,11,55,22.00
2008,08,13,11,56,22.00
2008,08,13,11,57,22.10
2008,08,13,11,58,22.20
2008,08,13,11,59,22.30
2008,08,13,12,00,22.30
2008,08,13,12,01,22.30
2008,08,13,12,02,22.40
2008,08,13,12,03,22.40
2008,08,13,12,04,22.40
2008,08,13,12,05,22.50
2008,08,13,12,06,22.50
2008,08,13,12,07,22.60
2008,08,13,12,08,22.60
2008,08,13,12,09,22.70
2008,08,13,12,10,22.70
2008,08,13,12,11,22.80
2008,08,13,12,12,22.90
2008,08,13,12,13,22.90
2008,08,13,12,14,22.90
2008,08,13,12,15,22.80
2008,08,13,12,16,22.80
2008,08,13,12,17,22.80
2008,08,13,12,18,22.80
2008,08,13,12,19,22.90
2008,08,13,12,20,22.90
2008,08,13,12,21,22.90
2008,08,13,12,22,22.90
2008,08,13,12,23,22.90
2008,08,13,12,24,22.80
2008,08,13,12,25,22.90
2008,08,13,12,26,22.90
2008,08,13,12,27,23.00
2008,08,13,12,28,23.00
2008,08,13,12,29,23.00
2008,08,13,12,30,23.10
2008,08,13,12,31,23.20
2008,08,13,12,32,23.30
2008,08,13,12,33,23.40
2008,08,13,12,34,23.40
2008,08,13,12,35,23.40
2008,08,13,12,36,23.40
2008,08,13,12,37,23.40
2008,08,13,12,38,23.40
2008,08,13,12,39,23.40
2008,08,13,12,40,23.50
2008,08,13,12,41,23.50
2008,08,13,12,42,23.50
2008,08,13,12,43,23.50
2008,08,13,12,44,23.50
2008,08,13,12,45,23.60
2008,08,13,12,46,23.60
2008,08,13,12,47,23.60
2008,08,13,12,48,23.50
2008,08,13,12,49,23.50
2008,08,13,12,50,23.40
2008,08,13,12,51,23.40
2008,08,13,12,52,23.40
2008,08,13,12,53,23.40
2008,08,13,12,54,23.40
2008,08,13,12,55,23.40
2008,08,13,12,56,23.40
2008,08,13,12,57,23.40
2008,08,13,12,58,23.50
2008,08,13,12,59,23.50
2008,08,13,13,00,23.60
2008,08,13,13,01,23.60
2008,08,13,13,02,23.60
2008,08,13,13,03,23.60
2008,08,13,13,04,23.60
2008,08,13,13,05,23.60
2008,08,13,13,06,23.60
2008,08,13,13,07,23.60
2008,08,13,13,08,23.60
2008,08,13,13,09,23.70
2008,08,13,13,10,23.70
2008,08,13,13,11,23.70
2008,08,13,13,12,23.70
2008,08,13,13,13,23.70
2008,08,13,13,14,23.70
2008,08,13,13,15,23.60
2008,08,13,13,16,23.60
2008,08,13,13,17,23.60
2008,08,13,13,18,23.60
2008,08,13,13,19,23.60
2008,08,13,13,20,23.60
2008,08,13,13,21,23.60
2008,08,13,13,22,23.60
2008,08,13,13,23,23.60
2008,08,13,13,24,23.60
2008,08,13,13,25,23.60
2008,08,13,13,26,23.60
2008,08,13,13,27,23.60
2008,08,13,13,28,23.50
2008,08,13,13,29,23.60
2008,08,13,13,30,23.60
2008,08,13,13,31,23.70
2008,08,13,13,32,23.70
2008,08,13,13,33,23.70
2008,08,13,13,34,23.80
2008,08,13,13,35,23.80
2008,08,13,13,36,23.90
2008,08,13,13,37,23.90
2008,08,13,13,38,23.80
2008,08,13,13,39,23.80
2008,08,13,13,40,23.90
2008,08,13,13,41,23.90
2008,08,13,13,42,23.90
2008,08,13,13,43,23.90
2008,08,13,13,44,23.90
2008,08,13,13,45,23.90
2008,08,13,13,46,24.00
2008,08,13,13,47,24.00
2008,08,13,13,48,24.10
2008,08,13,13,49,24.10
2008,08,13,13,50,24.10
2008,08,13,13,51,24.20
2008,08,13,13,52,24.20
2008,08,13,13,53,24.20
2008,08,13,13,54,24.20
2008,08,13,13,55,24.30
2008,08,13,13,56,24.30
2008,08,13,13,57,24.30
2008,08,13,13,58,24.30
2008,08,13,13,59,24.40
2008,08,13,14,00,24.30
2008,08,13,14,01,24.30
2008,08,13,14,02,24.20
2008,08,13,14,03,24.10
2008,08,13,14,04,24.10
2008,08,13,14,05,24.10
2008,08,13,14,06,24.10
2008,08,13,14,07,24.10
2008,08,13,14,08,24.10
2008,08,13,14,09,24.20
2008,08,13,14,10,24.10
2008,08,13,14,11,24.10
2008,08,13,14,12,24.10
2008,08,13,14,13,24.10
2008,08,13,14,14,24.10
2008,08,13,14,15,24.20
2008,08,13,14,16,24.20
2008,08,13,14,17,24.30
2008,08,13,14,18,24.40
2008,08,13,14,19,24.50
2008,08,13,14,20,24.60
2008,08,13,14,21,24.70
2008,08,13,14,22,24.90
2008,08,13,14,23,24.90
2008,08,13,14,24,24.90
2008,08,13,14,25,24.90
2008,08,13,14,26,24.90
2008,08,13,14,27,24.90
2008,08,13,14,28,24.90
2008,08,13,14,29,24.90
2008,08,13,14,30,24.90
2008,08,13,14,31,24.80
2008,08,13,14,32,24.70
2008,08,13,14,33,24.60
2008,08,13,14,34,24.50
2008,08,13,14,35,24.40
2008,08,13,14,36,24.40
2008,08,13,14,37,24.30
2008,08,13,14,38,24.30
2008,08,13,14,39,24.30
2008,08,13,14,40,24.30
2008,08,13,14,41,24.30
2008,08,13,14,42,24.40
2008,08,13,14,43,24.40
2008,08,13,14,44,24.50
2008,08,13,14,45,24.60
2008,08,13,14,46,24.70
2008,08,13,14,47,24.70
2008,08,13,14,48,24.80
2008,08,13,14,49,24.90
2008,08,13,14,50,24.90
2008,08,13,14,51,24.90
2008,08,13,14,52,24.90
2008,08,13,14,53,24.90
2008,08,13,14,54,25.00
2008,08,13,14,55,25.00
2008,08,13,14,56,25.00
2008,08,13,14,57,25.00
2008,08,13,14,58,25.00
2008,08,13,14,59,25.00
2008,08,13,15,00,25.00
2008,08,13,15,01,25.00
2008,08,13,15,02,25.10
2008,08,13,15,03,25.20
2008,08,13,15,04,25.20
2008,08,13,15,05,25.30
2008,08,13,15,06,25.30
2008,08,13,15,07,25.20
2008,08,13,15,08,25.10
2008,08,13,15,09,25.10
2008,08,13,15,10,25.00
2008,08,13,15,11,25.00
2008,08,13,15,12,25.00
2008,08,13,15,13,25.00
2008,08,13,15,14,25.10
2008,08,13,15,15,25.10
2008,08,13,15,16,25.20
2008,08,13,15,17,25.30
2008,08,13,15,18,25.30
2008,08,13,15,19,25.30
2008,08,13,15,20,25.40
2008,08,13,15,21,25.50
2008,08,13,15,22,25.60
2008,08,13,15,23,25.70
2008,08,13,15,24,25.80
2008,08,13,15,25,25.80
2008,08,13,15,26,25.80
2008,08,13,15,27,25.90
2008,08,13,15,28,25.90
2008,08,13,15,29,25.80
2008,08,13,15,30,25.70
2008,08,13,15,31,25.70
2008,08,13,15,32,25.60
2008,08,13,15,33,25.60
2008,08,13,15,34,25.60
2008,08,13,15,35,25.50
2008,08,13,15,36,25.50
2008,08,13,15,37,25.50
2008,08,13,15,38,25.50
2008,08,13,15,39,25.50
2008,08,13,15,40,25.60
2008,08,13,15,41,25.60
2008,08,13,15,42,25.50
2008,08,13,15,43,25.50
2008,08,13,15,44,25.50
2008,08,13,15,45,25.40
2008,08,13,15,46,25.40
2008,08,13,15,47,25.40
2008,08,13,15,48,25.40
2008,08,13,15,49,25.30
2008,08,13,15,50,25.20
2008,08,13,15,51,25.20
2008,08,13,15,52,25.30
2008,08,13,15,53,25.30
2008,08,13,15,54,25.40
2008,08,13,15,55,25.50
2008,08,13,15,56,25.50
2008,08,13,15,57,25.50
2008,08,13,15,58,25.50
2008,08,13,15,59,25.50
2008,08,13,16,00,25.50
2008,08,13,16,01,25.50
2008,08,13,16,02,25.50
2008,08,13,16,03,25.60
2008,08,13,16,04,25.60
2008,08,13,16,05,25.60
2008,08,13,16,06,25.60
2008,08,13,16,07,25.70
2008,08,13,16,08,25.80
2008,08,13,16,09,25.80
2008,08,13,16,10,25.80
2008,08,13,16,11,25.70
2008,08,13,16,12,25.70
2008,08,13,16,13,25.60
2008,08,13,16,14,25.60
2008,08,13,16,15,25.50
2008,08,13,16,16,25.50
2008,08,13,16,17,25.40
2008,08,13,16,18,25.30
2008,08,13,16,19,25.30
2008,08,13,16,20,25.30
2008,08,13,16,21,25.30
2008,08,13,16,22,25.30
2008,08,13,16,23,25.30
2008,08,13,16,24,25.40
2008,08,13,16,25,25.40
2008,08,13,16,26,25.40
2008,08,13,16,27,25.40
2008,08,13,16,28,25.40
2008,08,13,16,29,25.40
2008,08,13,16,30,25.40
2008,08,13,16,31,25.30
2008,08,13,16,32,25.30
2008,08,13,16,33,25.30
2008,08,13,16,34,25.20
2008,08,13,16,35,25.20
2008,08,13,16,36,25.20
2008,08,13,16,37,25.20
2008,08,13,16,38,25.20
2008,08,13,16,39,25.30
2008,08,13,16,40,25.30
2008,08,13,16,41,25.30
2008,08,13,16,42,25.40
2008,08,13,16,43,25.40
2008,08,13,16,44,25.30
2008,08,13,16,45,25.30
2008,08,13,16,46,25.30
2008,08,13,16,47,25.30
2008,08,13,16,48,25.30
2008,08,13,16,49,25.40
2008,08,13,16,50,25.50
2008,08,13,16,51,25.60
2008,08,13,16,52,25.70
2008,08,13,16,53,25.80
2008,08,13,16,54,25.90
2008,08,13,16,55,25.90
2008,08,13,16,56,26.00
2008,08,13,16,57,26.00
2008,08,13,16,58,26.00
2008,08,13,16,59,26.00
2008,08,13,17,00,26.00
2008,08,13,17,01,26.00
2008,08,13,17,02,26.00
2008,08,13,17,03,25.90
2008,08,13,17,04,25.90
2008,08,13,17,05,25.90
2008,08,13,17,06,25.90
2008,08,13,17,07,25.90
2008,08,13,17,08,25.90
2008,08,13,17,09,25.90
2008,08,13,17,10,25.90
2008,08,13,17,11,25.90
2008,08,13,17,12,25.90
2008,08,13,17,13,25.90
2008,08,13,17,14,25.90
2008,08,13,17,15,25.90
2008,08,13,17,16,25.90
2008,08,13,17,17,26.00
2008,08,13,17,18,26.10
2008,08,13,17,19,26.20